[[{"header":{"parameterUnit":"m.s-1","parameterCategory":2,"la1":30.2991,"la2":30.254,"lo1":-89.0895,"lo2":-89.0444,"dy":0.0017,"dx":0.0017,"nx":28,"ny":28,"refTime":"2025-07-09T09:00:00:Z","depth":"0","parameterNumber":2,"parameterNumberName":"U-component_of_CURRENTS"},"data":[0,0,0,0,0,0,0,0,0,0,0,0,0,0,0,0,0,0,0,0,0,0,0,0,0,0,0,0,0,0,0,0,0,0,0,0,0,0,0,0,0,0,0,0,0,0,0,0,0,0,0,0,0,0,0,0,0,0,0.3847,0.3848,0,0.3948,0.395,0.3951,0.3955,0.3954,0.3952,0.3951,0.407,0.4074,0.4079,0,0,0,0,0,0,0,0,0,0,0,0,0,0.3789,0.379,0.3847,0.3848,0.3849,0.3948,0.395,0.3951,0.3955,0.3954,0.3952,0.395,0.4068,0.4074,0.4079,0,0,0,0,0,0,0,0,0,0,0,0,0,0.3847,0.379,0.3847,0.3861,0.3863,0.3948,0.395,0.3952,0.3956,0.3954,0.3951,0.3949,0.4066,0.4073,0.408,0.4167,0,0,0.4101,0.4104,0,0,0,0,0,0,0,0,0.3844,0.385,0.3858,0.386,0.3862,0.3934,0.3973,0.4024,0.3956,0.3924,0.3951,0.3948,0.4026,0.4036,0.4064,0.4173,0.4178,0.4101,0.4106,0.4109,0.411,0,0,0,0,0,0,0,0.384,0.3846,0.389,0.3859,0.3861,0.3907,0.3911,0.3983,0.3989,0.3926,0.3926,0.3933,0.4027,0.4057,0.4067,0.418,0.4101,0.4107,0.4112,0.4114,0.4399,0.4403,0,0,0,0,0,0,0.3817,0.3842,0.3887,0.3893,0.3844,0.3909,0.3914,0.3916,0.3988,0.3996,0.3935,0.3933,0.4047,0.4059,0.4071,0.422,0.4108,0.4115,0.4119,0.4396,0.44,0.4404,0,0,0,0,0,0,0.3815,0.3819,0.3883,0.3868,0.3878,0.3911,0.3913,0.3919,0.3947,0.3993,0.4001,0.3955,0.4046,0.4061,0.4154,0.4222,0.4118,0.4124,0.4392,0.4397,0.4402,0.4491,0,0,0,0,0,0,0.3813,0.3818,0.3821,0.3866,0.3878,0.3954,0.3915,0.3922,0.3953,0.3951,0.4015,0.4023,0.4045,0.4144,0.4161,0.423,0.413,0.4387,0.4394,0.44,0.4484,0.4499,0.4512,0,0,0,0,0,0.381,0.3823,0.382,0.3826,0.3877,0.3957,0.397,0.3987,0.3956,0.3997,0.4032,0.4021,0.4196,0.4153,0.4172,0.4244,0.4384,0.4392,0.44,0.4478,0.4496,0.4511,0,0,0,0,0,0,0.3802,0.3826,0.3823,0.3842,0.3903,0.3956,0.3988,0.3995,0.4055,0.4048,0.4072,0.4087,0.4201,0.4211,0.4161,0.4346,0.4288,0.4299,0.434,0.4358,0.4371,0.4385,0.4135,0,0,0,0,0,0.38,0.3813,0.3859,0.388,0.3906,0.3947,0.3979,0.3999,0.4051,0.4073,0.4116,0.4169,0.4253,0.4289,0.4365,0.4464,0.4475,0.4522,0.4536,0.4547,0.4573,0.4667,0.4691,0.4429,0.4429,0.4429,0,0,0.38,0.3817,0.3823,0.388,0.3919,0.3995,0.3962,0.4025,0.4095,0.4081,0.4186,0.4231,0.4294,0.4413,0.4462,0.4423,0.4621,0.4557,0.4566,0.4586,0.4677,0.4703,0.4725,0.4435,0.4434,0.4433,0,0,0.3826,0.3828,0.3857,0.3917,0.3984,0.403,0.4048,0.4118,0.4154,0.4259,0.4276,0.4367,0.4465,0.4545,0.459,0.473,0.4701,0.4734,0.4809,0.49,0.4922,0.4942,0.4953,0.4973,0.4729,0.4729,0.4729,0,0.3825,0.387,0.3887,0.3952,0.4006,0.4046,0.4123,0.419,0.4285,0.4328,0.4302,0.4491,0.4545,0.4705,0.4752,0.4767,0.477,0.4735,0.4917,0.4937,0.4956,0.4963,0.4984,0.4734,0.4733,0.4733,0.4732,0,0.3886,0.3937,0.397,0.4059,0.4127,0.4205,0.4293,0.4364,0.4396,0.4455,0.46,0.4683,0.4786,0.4824,0.4833,0.5,0.494,0.493,0.4868,0.4987,0.4986,0.5007,0.4741,0.474,0.4738,0.4737,0,0,0.3842,0.3982,0.3994,0.4053,0.419,0.4247,0.4379,0.4504,0.458,0.4676,0.4784,0.4943,0.4958,0.5014,0.5047,0.5127,0.5256,0.5077,0.5079,0.5075,0.5391,0.5171,0.517,0.526,0.5265,0.5269,0.5323,0,0.3889,0.401,0.4079,0.4218,0.4293,0.4384,0.4504,0.4619,0.4709,0.4831,0.4928,0.5056,0.504,0.5094,0.5182,0.5256,0.5318,0.5238,0.5289,0.529,0.5071,0.5192,0.4986,0.5002,0.5342,0.5346,0.5348,0,0.3917,0.4004,0.4132,0.429,0.4329,0.4419,0.4585,0.4708,0.4888,0.4955,0.5086,0.5153,0.5323,0.5277,0.5453,0.5389,0.5405,0.5435,0.5437,0.5221,0.5109,0.4949,0.5025,0.4945,0.5379,0.5376,0.5374,0,0.3854,0.403,0.4125,0.4185,0.438,0.4441,0.4549,0.4728,0.4831,0.5043,0.5121,0.5305,0.5394,0.5489,0.5541,0.5509,0.5684,0.5648,0.5459,0.544,0.5274,0.5231,0.5272,0.5772,0.5772,0.5771,0.5771,0,0.3863,0.3936,0.4096,0.415,0.4279,0.4411,0.4557,0.4689,0.4875,0.4996,0.5176,0.5283,0.5452,0.5553,0.5591,0.5572,0.5726,0.5499,0.5465,0.529,0.525,0.5174,0.5142,0.5773,0.5773,0.5772,0.5772,0,0.3783,0.3887,0.4012,0.4198,0.4251,0.4342,0.454,0.4639,0.4829,0.4992,0.506,0.5286,0.5399,0.5514,0.5658,0.5596,0.5477,0.5583,0.5318,0.525,0.4924,0.4903,0.4719,0.4589,0.5378,0.5373,0.5369,0,0.3752,0.3805,0.401,0.4073,0.4155,0.4298,0.4389,0.4596,0.4705,0.4965,0.503,0.5195,0.5257,0.5372,0.5352,0.5357,0.5291,0.5136,0.505,0.4896,0.4853,0.47,0.4597,0.4864,0.4856,0.485,0.4845,0,0.3711,0.3781,0.3887,0.4018,0.4111,0.423,0.4369,0.4432,0.466,0.4751,0.4869,0.493,0.5039,0.4951,0.4955,0.4944,0.4886,0.4993,0.4962,0.4556,0.4275,0.4134,0.4796,0.4788,0.4793,0.4798,0.4801,0.4803,0.3668,0.3727,0.3852,0.3959,0.4049,0.4109,0.4113,0.4234,0.4309,0.437,0.4576,0.4552,0.4637,0.4593,0.4559,0.4392,0.4412,0.4278,0.4296,0.4178,0.3954,0.4424,0.4287,0.429,0.4292,0.4294,0.4296,0,0.3614,0.3676,0.3773,0.3866,0.3863,0.3972,0.4045,0.3977,0.392,0.4042,0.4053,0.4059,0.398,0.4049,0.3967,0.3793,0.366,0.37,0.3534,0.3491,0.4045,0.3926,0.3548,0.3548,0.3548,0.3549,0.3549,0.3549,0.3588,0.3633,0.3676,0.3645,0.367,0.3575,0.3549,0.346,0.348,0.3366,0.3335,0.3432,0.3681,0.372,0.3572,0.3469,0.3276,0.304,0.3094,0.3598,0.3657,0.3713,0.3598,0.3158,0.3157,0.2406,0.2401,0.2397]},{"header":{"parameterUnit":"m.s-1","parameterCategory":2,"la1":30.2991,"la2":30.254,"lo1":-89.0895,"lo2":-89.0444,"dy":0.0017,"dx":0.0017,"nx":28,"ny":28,"refTime":"2025-07-09T09:00:00:Z","depth":"0","parameterNumber":3,"parameterNumberName":"V-component_of_CURRENTS"},"data":[0,0,0,0,0,0,0,0,0,0,0,0,0,0,0,0,0,0,0,0,0,0,0,0,0,0,0,0,0,0,0,0,0,0,0,0,0,0,0,0,0,0,0,0,0,0,0,0,0,0,0,0,0,0,0,0,0,0,0.013,0.0129,0,0.0089,0.0089,0.0088,0.0045,0.0044,0.0043,0.0043,-0.0022,-0.0023,-0.0025,0,0,0,0,0,0,0,0,0,0,0,0,0,0.0167,0.0166,0.013,0.0129,0.0128,0.0089,0.0089,0.0088,0.0045,0.0044,0.0043,0.0042,-0.0022,-0.0023,-0.0025,0,0,0,0,0,0,0,0,0,0,0,0,0,0.0142,0.0166,0.013,0.0101,0.0098,0.0089,0.0089,0.0088,0.0045,0.0044,0.0043,0.0042,-0.0022,-0.0023,-0.0025,-0.0013,0,0,-0.003,-0.003,0,0,0,0,0,0,0,0,0.0143,0.0141,0.0106,0.0103,0.01,0.007,0.0078,0.0053,0.0045,0.0067,0.0043,0.0041,0.0006,0.0002,-0.0001,-0.0016,-0.0019,-0.003,-0.0031,-0.0031,-0.0032,0,0,0,0,0,0,0,0.0145,0.0142,0.0115,0.0105,0.0102,0.0089,0.0085,0.0073,0.0043,0.0065,0.0061,0.0055,0.0004,0.0001,-0.0003,-0.002,-0.003,-0.0031,-0.0032,-0.0033,-0.0016,-0.0015,0,0,0,0,0,0,0.0149,0.0144,0.0116,0.0113,0.0118,0.0089,0.0084,0.0082,0.0044,0.0037,0.0056,0.0053,0.0004,-0.0001,-0.0005,0.0034,-0.0031,-0.0033,-0.0034,-0.0017,-0.0016,-0.0014,0,0,0,0,0,0,0.015,0.0147,0.0118,0.0127,0.0122,0.009,0.0087,0.0081,0.0074,0.0037,0.003,0.0054,0.0003,-0.0003,-0.0007,0.003,-0.0034,-0.0035,-0.0019,-0.0017,-0.0015,0.0096,0,0,0,0,0,0,0.0151,0.0148,0.015,0.0127,0.0121,0.0127,0.0088,0.0081,0.0072,0.0067,0.0034,0.0026,0.0002,-0.0004,-0.0009,0.0027,-0.0036,-0.0021,-0.0018,-0.0016,0.009,0.0101,0.0111,0,0,0,0,0,0.0153,0.0164,0.0151,0.0148,0.0125,0.0128,0.0125,0.0099,0.0073,0.0085,0.0058,0.0027,0.0009,-0.0004,-0.001,0.0026,-0.0022,-0.0019,-0.0016,0.0086,0.0099,0.0111,0,0,0,0,0,0,0.0183,0.016,0.0145,0.0148,0.0144,0.012,0.0125,0.0104,0.0092,0.0083,0.0043,0.0036,0.0047,0.002,0.0005,0.0038,-0.001,-0.0008,0.0069,0.0081,0.0091,0.0135,-0.0038,0,0,0,0,0,0.0191,0.0193,0.0173,0.0178,0.0177,0.0151,0.0147,0.0132,0.0115,0.0108,0.0084,0.0062,0.0058,0.0054,0.0042,0.006,0.0036,0.0079,0.0089,0.0098,0.013,0.0127,0.014,-0.0004,-0.0004,-0.0004,0,0,0.0203,0.0192,0.0191,0.0185,0.0176,0.0203,0.0147,0.015,0.0173,0.0103,0.0126,0.0096,0.0069,0.0091,0.0094,0.0072,0.0122,0.0102,0.011,0.0138,0.0131,0.0146,0.0158,-0.0002,-0.0002,-0.0003,0,0,0.0242,0.0221,0.0241,0.0245,0.0238,0.0235,0.0238,0.0222,0.0214,0.0226,0.0188,0.0187,0.0167,0.0171,0.0166,0.0226,0.0174,0.0212,0.0305,0.0301,0.0313,0.0324,0.0292,0.0299,0.022,0.0221,0.0221,0,0.0259,0.0284,0.0251,0.0279,0.0298,0.0257,0.0303,0.0296,0.0281,0.0296,0.0247,0.0253,0.0216,0.0269,0.0285,0.0253,0.0229,0.026,0.0316,0.0326,0.0335,0.03,0.0307,0.0226,0.0226,0.0225,0.0224,0,0.0319,0.0344,0.0359,0.0389,0.0406,0.0436,0.0429,0.0441,0.042,0.0418,0.0446,0.0399,0.0412,0.0391,0.0353,0.0411,0.0364,0.0326,0.0289,0.0357,0.0315,0.0319,0.0234,0.0232,0.0231,0.0229,0,0,0.0358,0.0397,0.0404,0.0448,0.0469,0.0498,0.054,0.0584,0.0634,0.0598,0.0666,0.0634,0.0606,0.06,0.0553,0.0543,0.056,0.0469,0.0466,0.0446,0.0534,0.0456,0.0452,0.0528,0.053,0.0532,0.0472,0,0.0426,0.0509,0.051,0.061,0.0663,0.0654,0.0715,0.0742,0.0748,0.08,0.0753,0.0793,0.0687,0.0702,0.0677,0.06,0.0581,0.0579,0.0466,0.0462,0.0392,0.0459,0.0466,0.041,0.0476,0.0477,0.0477,0,0.0495,0.0548,0.0648,0.0746,0.077,0.0822,0.0922,0.0972,0.102,0.1023,0.1039,0.1001,0.1,0.0892,0.0799,0.08,0.0687,0.0605,0.06,0.0502,0.0396,0.0356,0.0416,0.0262,0.0483,0.0483,0.0482,0,0.0557,0.0653,0.0742,0.0771,0.0865,0.0915,0.0978,0.1043,0.1124,0.1179,0.1238,0.1202,0.1206,0.1076,0.0885,0.0852,0.0763,0.0692,0.0515,0.0506,0.048,0.0466,0.0391,0.0636,0.0636,0.0636,0.0636,0,0.0638,0.0712,0.0778,0.0828,0.0971,0.1002,0.1155,0.12,0.1305,0.1438,0.1369,0.1445,0.1253,0.1167,0.0968,0.076,0.0822,0.0559,0.0504,0.0514,0.0504,0.0341,0.0221,0.0634,0.0634,0.0635,0.0635,0,0.0697,0.0731,0.0851,0.0957,0.1001,0.1109,0.128,0.1401,0.1465,0.1636,0.1668,0.1646,0.1524,0.1301,0.1089,0.0878,0.0568,0.0583,0.059,0.0538,0.0211,0.0097,-0.0061,-0.0132,0.0391,0.0389,0.0387,0,0.0736,0.0795,0.0941,0.1034,0.1087,0.1242,0.137,0.1479,0.1621,0.1762,0.1866,0.1796,0.1763,0.1405,0.1038,0.0689,0.0513,0.0455,0.0391,0.0221,0.0054,-0.002,-0.0072,0.0388,0.0386,0.0385,0.0384,0,0.0822,0.0863,0.0966,0.1152,0.1292,0.1467,0.1648,0.1779,0.1929,0.2046,0.2163,0.2137,0.1798,0.1445,0.0959,0.0711,0.0334,0.0415,0.0261,0.0075,-0.0029,-0.0132,0.0373,0.0373,0.0374,0.0375,0.0376,0.0376,0.0889,0.0983,0.1114,0.1298,0.1464,0.1671,0.1822,0.2004,0.2211,0.2386,0.236,0.2342,0.1847,0.1179,0.0829,0.023,0.0212,0.0046,-0.0072,-0.0124,-0.0206,0.0255,0.0173,0.0173,0.0173,0.0173,0.0173,0,0.0982,0.1088,0.1259,0.1473,0.1661,0.1729,0.2001,0.2148,0.2367,0.25,0.256,0.2315,0.1699,0.1106,0.0275,-0.0153,-0.0278,-0.0378,-0.045,-0.0475,-0.0031,-0.0043,-0.02,-0.02,-0.02,-0.02,-0.02,-0.0199,0.1037,0.1202,0.1291,0.1595,0.1746,0.1987,0.2137,0.2331,0.2476,0.2604,0.2599,0.257,0.2116,0.062,-0.032,-0.053,-0.0787,-0.0899,-0.1017,-0.0696,-0.0663,-0.0632,-0.0666,-0.0952,-0.0953,-0.1365,-0.1369,-0.1373]}],[{"header":{"parameterUnit":"m.s-1","parameterCategory":2,"la1":30.2991,"la2":30.254,"lo1":-89.0895,"lo2":-89.0444,"dy":0.0017,"dx":0.0017,"nx":28,"ny":28,"refTime":"2025-07-09T09:00:00:Z","depth":"2","parameterNumber":2,"parameterNumberName":"U-component_of_CURRENTS"},"data":[0,0,0,0,0,0,0,0,0,0,0,0,0,0,0,0,0,0,0,0,0,0,0,0,0,0,0,0,0,0,0,0,0,0,0,0,0,0,0,0,0,0,0,0,0,0,0,0,0,0,0,0,0,0,0,0,0,0,0.333,0.333,0,0.3376,0.3376,0.3377,0.3377,0.3376,0.3375,0.3375,0.3452,0.3454,0.3457,0,0,0,0,0,0,0,0,0,0,0,0,0,0.3297,0.3297,0.333,0.3331,0.3331,0.3376,0.3376,0.3377,0.3377,0.3376,0.3375,0.3374,0.3451,0.3454,0.3457,0,0,0,0,0,0,0,0,0,0,0,0,0,0.3324,0.3297,0.333,0.3336,0.3337,0.3375,0.3376,0.3377,0.3377,0.3376,0.3375,0.3374,0.345,0.3454,0.3458,0.3501,0,0,0.347,0.3472,0,0,0,0,0,0,0,0,0.3322,0.3325,0.3335,0.3336,0.3337,0.3369,0.3393,0.342,0.3377,0.3362,0.3375,0.3374,0.3428,0.3433,0.3444,0.3505,0.3508,0.347,0.3473,0.3474,0.3475,0,0,0,0,0,0,0,0.3321,0.3324,0.3348,0.3335,0.3337,0.3355,0.3357,0.3398,0.3401,0.3363,0.3363,0.3368,0.3428,0.344,0.3446,0.3509,0.347,0.3474,0.3476,0.3478,0.3701,0.3704,0,0,0,0,0,0,0.3312,0.3322,0.3347,0.335,0.3327,0.3356,0.3359,0.336,0.3399,0.3404,0.3369,0.3368,0.3434,0.3441,0.3449,0.3576,0.3474,0.3478,0.348,0.3697,0.3702,0.3705,0,0,0,0,0,0,0.3312,0.3314,0.3345,0.3337,0.3342,0.3357,0.3359,0.3361,0.3388,0.3403,0.3408,0.3395,0.3433,0.3443,0.3518,0.3576,0.348,0.3483,0.3693,0.3699,0.3704,0.3784,0,0,0,0,0,0,0.331,0.3313,0.332,0.3336,0.3342,0.3397,0.336,0.3363,0.3392,0.3391,0.3427,0.3432,0.3433,0.3513,0.3522,0.358,0.3486,0.3689,0.3696,0.3702,0.3777,0.3791,0.3804,0,0,0,0,0,0.3309,0.3322,0.332,0.3324,0.3348,0.34,0.3406,0.3413,0.3394,0.3429,0.3452,0.3432,0.3562,0.3519,0.3529,0.3589,0.3685,0.3694,0.3701,0.3771,0.3788,0.3803,0,0,0,0,0,0,0.3312,0.3323,0.3322,0.3337,0.3379,0.34,0.3425,0.3429,0.3473,0.3472,0.3475,0.3485,0.3576,0.3578,0.3531,0.3677,0.3622,0.3632,0.3671,0.3688,0.3701,0.3737,0.349,0,0,0,0,0,0.3315,0.3326,0.3354,0.3371,0.3392,0.3413,0.3434,0.3446,0.3479,0.3496,0.3523,0.356,0.3617,0.3646,0.3694,0.3771,0.3774,0.3819,0.3833,0.3844,0.3884,0.3951,0.3974,0.3732,0.3732,0.3731,0,0,0.3318,0.3328,0.3333,0.3373,0.3398,0.3446,0.3424,0.3471,0.352,0.3501,0.3579,0.3613,0.3651,0.3741,0.3781,0.3748,0.3906,0.3854,0.3863,0.3898,0.3962,0.3985,0.4006,0.3737,0.3736,0.3735,0,0,0.3335,0.3346,0.3365,0.3407,0.3455,0.3481,0.3501,0.3547,0.358,0.3654,0.3665,0.3743,0.3803,0.3862,0.3892,0.4015,0.398,0.4022,0.4115,0.4179,0.4199,0.4217,0.4204,0.422,0.4023,0.4023,0.4023,0,0.334,0.3372,0.3386,0.3428,0.3467,0.3501,0.3553,0.3601,0.3669,0.3711,0.3691,0.383,0.3869,0.3991,0.405,0.4048,0.4049,0.4039,0.4195,0.4213,0.423,0.4213,0.423,0.4028,0.4027,0.4027,0.4026,0,0.3374,0.3416,0.3441,0.3499,0.3545,0.3608,0.3668,0.3726,0.3757,0.3804,0.3926,0.3985,0.4066,0.4099,0.4121,0.4273,0.4221,0.4202,0.4145,0.4259,0.4233,0.4249,0.4035,0.4033,0.4032,0.4031,0,0,0.3348,0.3446,0.3456,0.3496,0.3595,0.3628,0.3727,0.3827,0.3894,0.3967,0.4066,0.4194,0.4224,0.4267,0.4303,0.4386,0.4504,0.4364,0.4365,0.4336,0.4598,0.4438,0.4439,0.4508,0.4513,0.4516,0.4513,0,0.3383,0.3463,0.3511,0.3603,0.3655,0.3724,0.3812,0.3901,0.3984,0.4095,0.4178,0.4295,0.4285,0.4348,0.4429,0.4515,0.456,0.4505,0.4508,0.4508,0.4341,0.4459,0.4131,0.4092,0.4528,0.453,0.4532,0,0.3397,0.3458,0.3544,0.3656,0.3685,0.3746,0.3877,0.397,0.4133,0.4203,0.4318,0.4385,0.4552,0.4516,0.4664,0.4627,0.4634,0.4663,0.4662,0.451,0.4382,0.4062,0.4104,0.4559,0.4556,0.4554,0.4553,0,0.3347,0.3474,0.3539,0.358,0.3714,0.3765,0.3851,0.4,0.4095,0.4298,0.4378,0.4534,0.4623,0.4697,0.4743,0.4731,0.4862,0.4827,0.4662,0.4646,0.437,0.4323,0.4914,0.4914,0.4914,0.4914,0.4914,0,0.3354,0.3405,0.3521,0.3555,0.3646,0.3746,0.3872,0.3978,0.416,0.4269,0.4436,0.4523,0.4687,0.4756,0.4784,0.476,0.4868,0.4714,0.4666,0.4381,0.4338,0.4754,0.4736,0.4913,0.4913,0.4914,0.4914,0,0.3277,0.3363,0.3437,0.3576,0.3619,0.3681,0.3864,0.3958,0.414,0.4288,0.4362,0.4556,0.4647,0.4725,0.484,0.4779,0.48,0.4739,0.436,0.427,0.4524,0.451,0.4592,0.4587,0.4583,0.4579,0.4576,0,0.3246,0.3274,0.3409,0.3458,0.3522,0.3642,0.3727,0.3926,0.4021,0.4263,0.431,0.4473,0.4516,0.46,0.4572,0.4552,0.4664,0.4207,0.415,0.4562,0.4507,0.4499,0.4491,0.3788,0.3779,0.3771,0.3765,0,0.3189,0.323,0.3295,0.3388,0.3472,0.356,0.3688,0.3738,0.3951,0.4058,0.4153,0.422,0.431,0.4159,0.4153,0.4101,0.4203,0.4052,0.4613,0.3922,0.3805,0.375,0.3769,0.3698,0.3705,0.371,0.3714,0.3716,0.3139,0.3156,0.3237,0.331,0.3396,0.3424,0.3419,0.3535,0.3607,0.3682,0.3861,0.3837,0.3896,0.3723,0.3598,0.3514,0.3806,0.3652,0.3675,0.3707,0.3617,0.35,0.3315,0.3319,0.3322,0.3326,0.3329,0,0.3065,0.3094,0.3155,0.3199,0.319,0.3303,0.3343,0.3283,0.324,0.3372,0.3413,0.3156,0.3061,0.3107,0.2884,0.288,0.2863,0.2759,0.272,0.2789,0.285,0.2717,0.2175,0.2171,0.2167,0.2164,0,0,0.3031,0.3035,0.3048,0.2981,0.2996,0.2909,0.2874,0.2818,0.284,0.2758,0.2728,0.2961,0.3046,0.2585,0.2526,0.2308,0.253,0.2217,0.3153,0.3179,0.3235,0.3384,0.3259,0,0,0,0,0]},{"header":{"parameterUnit":"m.s-1","parameterCategory":2,"la1":30.2991,"la2":30.254,"lo1":-89.0895,"lo2":-89.0444,"dy":0.0017,"dx":0.0017,"nx":28,"ny":28,"refTime":"2025-07-09T09:00:00:Z","depth":"2","parameterNumber":3,"parameterNumberName":"V-component_of_CURRENTS"},"data":[0,0,0,0,0,0,0,0,0,0,0,0,0,0,0,0,0,0,0,0,0,0,0,0,0,0,0,0,0,0,0,0,0,0,0,0,0,0,0,0,0,0,0,0,0,0,0,0,0,0,0,0,0,0,0,0,0,0,0.0053,0.0052,0,0.0013,0.0012,0.0012,-0.0026,-0.0026,-0.0027,-0.0028,-0.0087,-0.0088,-0.0089,0,0,0,0,0,0,0,0,0,0,0,0,0,0.0089,0.0089,0.0053,0.0052,0.0052,0.0013,0.0012,0.0012,-0.0026,-0.0026,-0.0027,-0.0028,-0.0087,-0.0088,-0.0089,0,0,0,0,0,0,0,0,0,0,0,0,0,0.0065,0.0089,0.0053,0.0027,0.0024,0.0013,0.0012,0.0012,-0.0026,-0.0026,-0.0027,-0.0028,-0.0086,-0.0088,-0.0089,-0.0081,0,0,-0.0094,-0.0095,0,0,0,0,0,0,0,0,0.0066,0.0064,0.0032,0.0029,0.0026,-0.0004,0.0003,-0.0021,-0.0025,-0.0005,-0.0028,-0.0029,-0.0061,-0.0065,-0.0068,-0.0084,-0.0086,-0.0094,-0.0095,-0.0096,-0.0096,0,0,0,0,0,0,0,0.0068,0.0065,0.0038,0.0031,0.0028,0.0015,0.001,-0.0002,-0.0027,-0.0007,-0.001,-0.0017,-0.0063,-0.0067,-0.007,-0.0087,-0.0094,-0.0096,-0.0096,-0.0097,-0.0092,-0.0091,0,0,0,0,0,0,0.0072,0.0067,0.004,0.0037,0.0043,0.0015,0.001,0.0008,-0.0027,-0.0033,-0.0016,-0.0018,-0.0064,-0.0068,-0.0072,-0.004,-0.0096,-0.0097,-0.0098,-0.0093,-0.0092,-0.009,0,0,0,0,0,0,0.0073,0.007,0.0041,0.005,0.0045,0.0015,0.0013,0.0007,0.0002,-0.0033,-0.004,-0.0016,-0.0064,-0.007,-0.0075,-0.0044,-0.0098,-0.0099,-0.0094,-0.0092,-0.0091,0.0008,0,0,0,0,0,0,0.0074,0.0071,0.0073,0.005,0.0044,0.0049,0.0013,0.0007,-0.0001,-0.0005,-0.0035,-0.0042,-0.0066,-0.0072,-0.0077,-0.0047,-0.0101,-0.0095,-0.0093,-0.0091,0.0004,0.0013,0.0021,0,0,0,0,0,0.0076,0.0086,0.0074,0.007,0.0048,0.005,0.0047,0.0023,-0.0,0.0012,-0.0014,-0.0041,-0.0063,-0.0073,-0.0078,-0.0048,-0.0096,-0.0094,-0.0092,-0.0,0.0011,0.0021,0,0,0,0,0,0,0.0104,0.0082,0.0069,0.0072,0.0067,0.0043,0.0047,0.0028,0.0017,0.0009,-0.0028,-0.0035,-0.0028,-0.0053,-0.0063,-0.0042,-0.0084,-0.0082,-0.0012,-0.0002,0.0007,0.0042,-0.0102,0,0,0,0,0,0.0112,0.0113,0.0094,0.0099,0.0097,0.0073,0.0069,0.0054,0.0038,0.0031,0.001,-0.0012,-0.002,-0.0024,-0.0039,-0.0025,-0.0057,-0.001,-0.0001,0.0006,0.0031,0.0008,0.0017,-0.0083,-0.0083,-0.0083,0,0,0.0123,0.0112,0.0111,0.0105,0.0096,0.0118,0.0069,0.0071,0.0091,0.0027,0.0047,0.0016,-0.0012,0.0004,0.0005,-0.0013,0.0014,0.0009,0.0016,0.0038,0.0011,0.0021,0.003,-0.0081,-0.0081,-0.0081,0,0,0.0157,0.0139,0.0157,0.0161,0.0153,0.0147,0.0151,0.0135,0.0129,0.0137,0.0101,0.0093,0.0074,0.007,0.0062,0.0111,0.0058,0.0101,0.018,0.0157,0.0165,0.0172,0.0129,0.0132,0.0109,0.011,0.011,0,0.0173,0.0196,0.0165,0.019,0.0209,0.0167,0.0209,0.02,0.0186,0.0197,0.0155,0.0145,0.0112,0.0146,0.0162,0.0134,0.0103,0.0144,0.017,0.0176,0.0182,0.0136,0.0137,0.0115,0.0114,0.0114,0.0113,0,0.0226,0.025,0.0264,0.0288,0.0303,0.033,0.0321,0.0328,0.0308,0.0303,0.0317,0.0267,0.0266,0.0251,0.0221,0.0256,0.0214,0.018,0.0147,0.0198,0.0145,0.0145,0.0122,0.012,0.0119,0.0117,0,0,0.0262,0.0297,0.0304,0.0345,0.0362,0.0386,0.0419,0.0452,0.0491,0.0451,0.0499,0.0464,0.043,0.0419,0.0375,0.0357,0.0352,0.0296,0.0293,0.026,0.0289,0.0245,0.0239,0.0322,0.0323,0.0324,0.0231,0,0.0324,0.04,0.04,0.049,0.0539,0.0527,0.0575,0.0593,0.059,0.0621,0.0565,0.0589,0.0496,0.0503,0.0466,0.0392,0.0359,0.038,0.0239,0.0235,0.0196,0.0241,0.0255,0.0173,0.023,0.023,0.023,0,0.0386,0.0437,0.0529,0.0617,0.0638,0.0681,0.076,0.0798,0.0818,0.0817,0.0807,0.076,0.0737,0.0644,0.0526,0.0543,0.0431,0.0354,0.0348,0.0279,0.0192,0.0133,0.017,0.0229,0.0229,0.0229,0.0229,0,0.0446,0.0534,0.0618,0.0645,0.0725,0.0769,0.0818,0.086,0.0928,0.095,0.0991,0.0925,0.0911,0.077,0.0581,0.0564,0.0434,0.0384,0.0233,0.0227,0.02,0.0191,0.0302,0.0302,0.0303,0.0303,0.0303,0,0.0522,0.0591,0.0653,0.0699,0.0826,0.085,0.0981,0.1008,0.1084,0.1188,0.1101,0.114,0.0945,0.0832,0.064,0.0434,0.0466,0.0266,0.0214,0.0232,0.0227,0.0246,0.0241,0.0299,0.03,0.0301,0.0301,0,0.0576,0.0609,0.072,0.0815,0.0854,0.0948,0.11,0.1202,0.1243,0.1368,0.1388,0.1321,0.1171,0.0941,0.0715,0.0527,0.0326,0.0236,0.026,0.0213,0.0116,0.0117,0.0082,0.008,0.0078,0.0077,0.0076,0,0.0611,0.0667,0.08,0.0886,0.0934,0.1075,0.1189,0.1278,0.1392,0.1473,0.1541,0.1439,0.1372,0.1004,0.0672,0.0339,0.0295,0.0131,0.0108,0.0148,0.01,0.0104,0.0107,0.0096,0.0095,0.0094,0.0094,0,0.0689,0.0726,0.0821,0.0992,0.112,0.1281,0.1433,0.154,0.1652,0.173,0.1782,0.1731,0.1395,0.1056,0.0606,0.0379,0.0188,0.0105,0.0156,0.0153,0.0155,0.011,0.0114,0.0087,0.0088,0.0088,0.0089,0.0089,0.075,0.0833,0.0953,0.1122,0.1277,0.1454,0.1582,0.1728,0.1885,0.1995,0.1942,0.1861,0.1496,0.0915,0.052,0.012,0.015,0.0001,0.0007,0.0012,0.0034,0.0033,-0.0055,-0.0055,-0.0055,-0.0055,-0.0055,0,0.0833,0.0926,0.1081,0.1274,0.1441,0.1509,0.173,0.1842,0.1997,0.2085,0.2107,0.1745,0.1364,0.0939,0.0345,-0.0004,-0.0021,-0.0123,-0.0068,-0.0059,-0.0051,-0.003,-0.0138,-0.0139,-0.0141,-0.0142,0,0,0.0882,0.1029,0.1106,0.1372,0.1507,0.1714,0.1831,0.1978,0.2074,0.2129,0.2087,0.201,0.1488,0.1043,0.0555,0.0206,0.0159,0.0138,0.0242,0.0374,0.0386,0.0055,0.0102,0,0,0,0,0]}],[{"header":{"parameterUnit":"m.s-1","parameterCategory":2,"la1":30.2991,"la2":30.254,"lo1":-89.0895,"lo2":-89.0444,"dy":0.0017,"dx":0.0017,"nx":28,"ny":28,"refTime":"2025-07-09T09:00:00:Z","depth":"4","parameterNumber":2,"parameterNumberName":"U-component_of_CURRENTS"},"data":[0,0,0,0,0,0,0,0,0,0,0,0,0,0,0,0,0,0,0,0,0,0,0,0,0,0,0,0,0,0,0,0,0,0,0,0,0,0,0,0,0,0,0,0,0,0,0,0,0,0,0,0,0,0,0,0,0,0,0.211,0.211,0,0.2124,0.2124,0.2124,0.2165,0.2167,0.2168,0.2169,0.221,0.221,0.221,0,0,0,0,0,0,0,0,0,0,0,0,0,0.2056,0.2057,0.211,0.211,0.2111,0.2124,0.2124,0.2124,0.2165,0.2167,0.2168,0.217,0.221,0.221,0.221,0,0,0,0,0,0,0,0,0,0,0,0,0,0.2071,0.2057,0.211,0.2137,0.2141,0.2124,0.2124,0.2123,0.2165,0.2167,0.2169,0.2171,0.2211,0.221,0.221,0.2165,0,0,0.2209,0.2209,0,0,0,0,0,0,0,0,0.207,0.2072,0.2133,0.2136,0.2139,0.215,0.212,0.2141,0.2164,0.2149,0.2169,0.2172,0.2195,0.2196,0.2185,0.2167,0.2169,0.2209,0.2209,0.2208,0.2208,0,0,0,0,0,0,0,0.2069,0.2071,0.211,0.2133,0.2137,0.2129,0.2133,0.2124,0.2156,0.2151,0.2155,0.2165,0.2196,0.2186,0.2187,0.2169,0.2209,0.2209,0.2208,0.2208,0.2282,0.2284,0,0,0,0,0,0,0.2079,0.207,0.2109,0.2111,0.2115,0.2128,0.2133,0.214,0.2156,0.2162,0.2163,0.2167,0.2185,0.2187,0.2189,0.2284,0.2208,0.2208,0.2208,0.2279,0.2282,0.2284,0,0,0,0,0,0,0.2078,0.2082,0.2109,0.2096,0.2099,0.2128,0.2135,0.2139,0.2181,0.2166,0.2172,0.2208,0.2187,0.2189,0.222,0.2281,0.2208,0.2208,0.2277,0.228,0.2283,0.238,0,0,0,0,0,0,0.2076,0.2081,0.2108,0.2096,0.2101,0.2134,0.2133,0.2138,0.2183,0.2189,0.2205,0.2208,0.2189,0.222,0.2219,0.2279,0.2207,0.2274,0.2278,0.2282,0.2374,0.2386,0.2397,0,0,0,0,0,0.2074,0.2098,0.2109,0.2115,0.213,0.2135,0.2137,0.2159,0.2184,0.2204,0.2217,0.221,0.2247,0.2221,0.2219,0.228,0.2272,0.2277,0.2282,0.2369,0.2384,0.2396,0,0,0,0,0,0,0.209,0.2104,0.2116,0.2145,0.2158,0.2146,0.2175,0.2187,0.2209,0.2232,0.2219,0.2221,0.2282,0.226,0.2232,0.2315,0.2266,0.2271,0.2333,0.2347,0.2358,0.237,0.2207,0,0,0,0,0,0.2104,0.2129,0.2135,0.2162,0.2176,0.2184,0.2199,0.2213,0.2224,0.2239,0.2246,0.2264,0.2289,0.2302,0.2313,0.2338,0.2339,0.2383,0.2394,0.2404,0.2414,0.2463,0.2479,0.23,0.23,0.23,0,0,0.2118,0.2131,0.2147,0.2169,0.2183,0.2194,0.2199,0.2236,0.2259,0.2237,0.2285,0.2307,0.2308,0.2351,0.2376,0.2345,0.2458,0.241,0.2418,0.2423,0.2469,0.2487,0.2502,0.2304,0.2303,0.2302,0,0,0.2134,0.2174,0.2191,0.2205,0.2239,0.224,0.2264,0.2278,0.2312,0.2343,0.2355,0.2409,0.2421,0.2442,0.2452,0.2528,0.2523,0.2547,0.2605,0.2652,0.2668,0.2681,0.2713,0.2728,0.2544,0.2544,0.2544,0,0.2155,0.2166,0.2198,0.2212,0.2231,0.2266,0.2281,0.231,0.2335,0.2373,0.2378,0.2457,0.2465,0.2531,0.2568,0.2556,0.2576,0.2552,0.2668,0.2681,0.2693,0.2722,0.2738,0.255,0.2549,0.2548,0.2548,0,0.2162,0.2186,0.2203,0.2229,0.2258,0.2281,0.232,0.2368,0.2416,0.2445,0.2544,0.256,0.2611,0.2634,0.2624,0.2725,0.2712,0.2684,0.2633,0.2717,0.2742,0.2757,0.2557,0.2555,0.2554,0.2552,0,0,0.2158,0.2197,0.2207,0.2217,0.2271,0.2285,0.2354,0.2414,0.2484,0.2538,0.2622,0.2689,0.2735,0.275,0.2766,0.2807,0.2916,0.2792,0.2792,0.2823,0.3025,0.2828,0.2824,0.2915,0.2918,0.292,0.3012,0,0.215,0.2168,0.22,0.2227,0.2234,0.2302,0.2365,0.2441,0.252,0.2612,0.2685,0.2777,0.2769,0.2827,0.2871,0.2913,0.2958,0.2893,0.294,0.2941,0.2755,0.2836,0.293,0.3022,0.3025,0.3028,0.303,0,0.2135,0.2145,0.2171,0.2223,0.2242,0.2286,0.2407,0.247,0.2618,0.2692,0.2802,0.2865,0.2973,0.2946,0.3057,0.3022,0.3042,0.3054,0.3057,0.2847,0.277,0.2919,0.3055,0.3053,0.3051,0.305,0.3048,0,0.2082,0.2123,0.2144,0.2159,0.2233,0.2295,0.2365,0.2511,0.2596,0.2772,0.2854,0.2976,0.3062,0.3112,0.3153,0.3129,0.3248,0.3206,0.3043,0.303,0.3136,0.3121,0.328,0.328,0.328,0.328,0.328,0,0.2032,0.2051,0.2134,0.2135,0.2199,0.2287,0.2404,0.2497,0.2669,0.277,0.2909,0.2993,0.3115,0.3188,0.32,0.3163,0.3289,0.3069,0.3044,0.3175,0.3163,0.3147,0.313,0.3283,0.3282,0.3282,0.3281,0,0.1962,0.2012,0.2027,0.212,0.2168,0.2226,0.2404,0.2481,0.267,0.2805,0.2872,0.3051,0.3144,0.3218,0.3306,0.3204,0.3198,0.3152,0.3303,0.3282,0.294,0.2928,0.298,0.2973,0.2968,0.2964,0.296,0,0.1918,0.1924,0.2006,0.203,0.208,0.2195,0.2272,0.2464,0.2548,0.2805,0.2841,0.302,0.3106,0.307,0.3164,0.3167,0.3124,0.3093,0.3,0.2941,0.2912,0.2908,0.2903,0.2952,0.2951,0.2949,0.2948,0,0.1823,0.1876,0.1885,0.1933,0.2,0.2079,0.221,0.2261,0.248,0.2661,0.2753,0.2812,0.2905,0.2956,0.2979,0.2973,0.3094,0.3038,0.3047,0.296,0.2908,0.2884,0.2885,0.293,0.2933,0.2934,0.2935,0,0.1761,0.1752,0.1778,0.181,0.1885,0.1936,0.2024,0.212,0.2233,0.2509,0.2534,0.2714,0.2883,0.2858,0.2881,0.2858,0.2808,0.2694,0.272,0.2741,0.2616,0.2513,0.2404,0,0,0,0,0,0.1686,0.1661,0.1661,0.1665,0.1733,0.1803,0.196,0.2061,0.227,0.2266,0.2402,0.2478,0.2537,0.2634,0.2561,0.2768,0.2812,0.2669,0.2692,0.283,0.2851,0.2723,0,0,0,0,0,0,0.1631,0.1626,0.1603,0.1543,0.155,0.1623,0.1733,0.1876,0.1894,0.2114,0.2161,0.2318,0.2412,0.2553,0.2513,0.2538,0.2497,0.2783,0.2776,0.2818,0.2837,0.2854,0.2729,0,0,0,0,0]},{"header":{"parameterUnit":"m.s-1","parameterCategory":2,"la1":30.2991,"la2":30.254,"lo1":-89.0895,"lo2":-89.0444,"dy":0.0017,"dx":0.0017,"nx":28,"ny":28,"refTime":"2025-07-09T09:00:00:Z","depth":"4","parameterNumber":3,"parameterNumberName":"V-component_of_CURRENTS"},"data":[0,0,0,0,0,0,0,0,0,0,0,0,0,0,0,0,0,0,0,0,0,0,0,0,0,0,0,0,0,0,0,0,0,0,0,0,0,0,0,0,0,0,0,0,0,0,0,0,0,0,0,0,0,0,0,0,0,0,0.0034,0.0034,0,0.0012,0.0012,0.0012,-0.0011,-0.0012,-0.0012,-0.0013,-0.0039,-0.0039,-0.004,0,0,0,0,0,0,0,0,0,0,0,0,0,0.0055,0.0055,0.0034,0.0034,0.0033,0.0012,0.0012,0.0012,-0.0011,-0.0012,-0.0012,-0.0013,-0.0039,-0.0039,-0.004,0,0,0,0,0,0,0,0,0,0,0,0,0,0.0042,0.0055,0.0034,0.0018,0.0016,0.0012,0.0012,0.0012,-0.0011,-0.0012,-0.0012,-0.0013,-0.0039,-0.0039,-0.004,-0.0028,0,0,-0.0041,-0.0041,0,0,0,0,0,0,0,0,0.0043,0.0042,0.0021,0.0019,0.0017,0.0001,0.001,-0.0002,-0.0011,0.0001,-0.0013,-0.0013,-0.0026,-0.0028,-0.0028,-0.0029,-0.003,-0.0041,-0.0041,-0.0041,-0.0041,0,0,0,0,0,0,0,0.0044,0.0043,0.0027,0.002,0.0018,0.0012,0.0009,0.0008,-0.0007,-0.0,-0.0002,-0.0007,-0.0027,-0.0028,-0.0029,-0.0031,-0.0041,-0.0041,-0.0041,-0.0042,-0.003,-0.003,0,0,0,0,0,0,0.0045,0.0044,0.0028,0.0026,0.0027,0.0012,0.0009,0.0008,-0.0007,-0.0011,-0.0006,-0.0008,-0.0027,-0.0028,-0.003,-0.0006,-0.0041,-0.0042,-0.0042,-0.0031,-0.003,-0.0029,0,0,0,0,0,0,0.0045,0.0044,0.0028,0.0033,0.003,0.0012,0.0011,0.0008,0.0007,-0.0012,-0.0016,-0.0004,-0.0027,-0.0029,-0.0025,-0.0008,-0.0042,-0.0042,-0.0031,-0.003,-0.003,0.0035,0,0,0,0,0,0,0.0046,0.0044,0.0047,0.0033,0.003,0.0036,0.0012,0.0008,0.0005,0.0002,-0.0012,-0.0015,-0.0028,-0.0024,-0.0025,-0.0009,-0.0042,-0.0032,-0.0031,-0.003,0.0032,0.0038,0.0043,0,0,0,0,0,0.0047,0.0055,0.0047,0.0045,0.0033,0.0037,0.0036,0.0021,0.0006,0.0015,0.0003,-0.0014,-0.0019,-0.0024,-0.0025,-0.0009,-0.0032,-0.0031,-0.003,0.003,0.0036,0.0042,0,0,0,0,0,0,0.0066,0.0053,0.0044,0.0047,0.0046,0.0033,0.0037,0.0025,0.0023,0.0019,-0.0002,-0.0005,0.0003,-0.0012,-0.0017,-0.0004,-0.003,-0.0029,0.0015,0.0022,0.0027,0.0038,-0.0043,0,0,0,0,0,0.0072,0.0074,0.0062,0.0067,0.0067,0.0053,0.0052,0.0043,0.0036,0.0034,0.0024,0.0012,0.0007,0.0007,0.0001,0.0013,-0.0022,0.002,0.0025,0.003,0.0037,-0.0012,-0.0011,-0.0025,-0.0025,-0.0025,0,0,0.0079,0.0073,0.0073,0.0071,0.0067,0.0085,0.0051,0.0055,0.0071,0.0032,0.0052,0.0032,0.0014,0.0026,0.0028,0.0017,0.0017,0.0031,0.0036,0.004,-0.0011,-0.001,-0.0008,-0.0025,-0.0025,-0.0025,0,0,0.0104,0.0093,0.0106,0.0112,0.011,0.0107,0.0111,0.0104,0.0101,0.0114,0.0087,0.0076,0.0076,0.0064,0.0058,0.0088,0.0045,0.0087,0.0127,0.008,0.008,0.008,0.0042,0.0039,0.0091,0.0091,0.0091,0,0.0115,0.0134,0.0113,0.0134,0.0149,0.0122,0.0154,0.015,0.0146,0.015,0.0128,0.0112,0.0094,0.0101,0.0112,0.01,0.0069,0.0106,0.0086,0.0086,0.0085,0.0045,0.004,0.0095,0.0094,0.0094,0.0094,0,0.0154,0.0174,0.0185,0.0207,0.0219,0.0242,0.0237,0.0245,0.0234,0.0225,0.0222,0.0186,0.0176,0.0166,0.0152,0.0144,0.0123,0.0097,0.0071,0.009,0.0048,0.0041,0.0099,0.0098,0.0097,0.0096,0,0,0.0175,0.0208,0.0214,0.0246,0.0264,0.0283,0.0308,0.0327,0.0345,0.0317,0.0329,0.0303,0.0268,0.0258,0.0225,0.0185,0.0151,0.0148,0.0143,0.0112,0.0052,0.0054,0.0047,0.0119,0.0119,0.0118,0.0027,0,0.0219,0.0279,0.0283,0.0352,0.0389,0.0385,0.0419,0.0427,0.0416,0.0419,0.0361,0.036,0.0308,0.0303,0.0253,0.0177,0.0136,0.0178,0.0037,0.0033,0.0033,0.004,0.0115,0.0022,0.0021,0.002,0.0019,0,0.0263,0.0303,0.0375,0.044,0.0456,0.0493,0.054,0.0566,0.0554,0.0543,0.0508,0.0458,0.0407,0.0352,0.0219,0.0248,0.0163,0.0092,0.0086,0.0061,0.0023,-0.0003,0.0007,0.0008,0.0008,0.0009,0.001,0,0.0299,0.0371,0.0435,0.0458,0.0521,0.0556,0.0592,0.0605,0.0641,0.0619,0.0624,0.0539,0.0505,0.0377,0.0231,0.0225,0.0072,0.0041,-0.0041,-0.0042,-0.0045,-0.0045,-0.0054,-0.0054,-0.0054,-0.0054,-0.0053,0,0.0348,0.0402,0.0461,0.0497,0.0591,0.0612,0.0697,0.0709,0.0736,0.0778,0.0693,0.0687,0.0509,0.0398,0.0253,0.009,0.0084,-0.003,-0.0064,-0.0015,-0.001,-0.005,-0.0048,-0.0057,-0.0056,-0.0056,-0.0055,0,0.0378,0.0411,0.0496,0.0575,0.0609,0.0678,0.0784,0.0837,0.0848,0.0893,0.0892,0.0801,0.0658,0.047,0.0262,0.0136,-0.0031,-0.0086,-0.0008,-0.0037,-0.0119,-0.0113,-0.0187,-0.0187,-0.0188,-0.0188,-0.0189,0,0.0398,0.0442,0.0552,0.0614,0.0657,0.0763,0.0838,0.0893,0.0947,0.0959,0.0976,0.0867,0.0777,0.0492,0.0285,0.0007,-0.0035,-0.0127,-0.0134,-0.0106,-0.0133,-0.0126,-0.0119,-0.019,-0.019,-0.019,-0.019,0,0.0441,0.0477,0.0546,0.0669,0.0761,0.0877,0.0978,0.1031,0.1084,0.1086,0.1056,0.0908,0.0749,0.0512,0.0301,0.0097,-0.0075,-0.0134,-0.0134,-0.0142,-0.0111,-0.0135,-0.0128,-0.0192,-0.0192,-0.0192,-0.0192,0,0.0473,0.053,0.0613,0.0727,0.0842,0.0955,0.1014,0.1081,0.1138,0.1139,0.1125,0.095,0.0849,0.056,0.036,0.0163,0.0106,0.0027,0.0017,0.0016,0.0095,0.0165,0.0145,0,0,0,0,0,0.0507,0.0567,0.0667,0.0787,0.0899,0.0971,0.109,0.1137,0.1178,0.1169,0.1155,0.1008,0.0724,0.0602,0.0408,0.033,0.0058,0.0092,-0.0041,-0.0204,-0.0201,-0.0144,0,0,0,0,0,0,0.0528,0.0616,0.0665,0.081,0.09,0.1029,0.1114,0.1147,0.1149,0.1154,0.1015,0.094,0.0671,0.0834,0.0398,0.0338,0.0222,-0.0039,-0.0044,-0.0205,-0.0203,-0.0201,-0.0141,0,0,0,0,0]}]]